Weather History for Erie, PA

Change the Weather History Date:

Sunday, January 27, 2013

  Actual Average Record
Temperature  
Mean Temperature 27 °F 27 °F  
Max Temperature 32 °F 34 °F 67 °F (1916)
Min Temperature 21 °F 20 °F -5 °F (1936)
Degree Days  
Heating Degree Days 38 38  
Month to date heating degree days 927 1018  
Since 1 July heating degree days 2949 3186  
Cooling Degree Days 0 0  
Month to date cooling degree days 0 0  
Year to date cooling degree days 0 0  
Moisture  
Dew Point 15 °F    
Average Humidity 63    
Maximum Humidity 77    
Minimum Humidity 49    
Precipitation  
Precipitation T in 0.08 in 0.88 in (2012)
Month to date precipitation 1.86 2.62  
Year to date precipitation 1.86 2.62  
Snow  
Snow T in 0.90 in - ()
Month to date snowfall 25.7 26.3  
Since 1 July snowfall 49.2 62.5  
Snow Depth 6.00 in    
Sea Level Pressure  
Sea Level Pressure 30.46 in    
Wind  
Wind Speed 5 mph (South)    
Max Wind Speed 15 mph    
Max Gust Speed 20 mph    
Visibility 10 miles    
Events Snow    
T = Trace of Precipitation, MM = Missing Value Source: NWS Daily Summary

Daily Weather History Graph

Daily Weather History Graph

Search for Another Location

Airport:

Trip Planner

Search our weather history database for the weather conditions in past years. The results will help you decide how hot, cold, wet, or windy it might be!

Date:

Astronomy

Jan. 27, 2013 Rise Set
Actual Time 7:38 AM EST 5:29 PM EST
Civil Twilight 7:08 AM EST 5:59 PM EST
Nautical Twilight 6:34 AM EST 6:33 PM EST
Astronomical Twilight 6:01 AM EST 7:06 PM EST
Moon 6:23 PM EST (1/27) 7:28 AM EST (1/27)
Length of Visible Light 10h 51m
Length of Day
9h 51m
Full, 100% of the Moon is Illuminated
Jan 27
Full
Feb 3
Last Quarter
Feb 10
New
Feb 17
First Quarter
Feb 25
Full

Hourly Weather History & Observations

Time (EST) Temp. Windchill Dew Point Humidity Pressure Visibility Wind Dir Wind Speed Gust Speed Precip Events Conditions
12:18 AM 23.0 °F 14.7 °F 15.8 °F 74% 30.42 in 10.0 mi SSW 6.9 mph - N/A   Overcast
12:49 AM 23.0 °F 17.0 °F 15.8 °F 74% 30.42 in 10.0 mi SSW 4.6 mph - N/A   Overcast
12:51 AM 23.0 °F 18.4 °F 15.1 °F 72% 30.46 in 10.0 mi South 3.5 mph - N/A   Overcast
1:23 AM 23.0 °F 18.4 °F 15.8 °F 74% 30.42 in 10.0 mi South 3.5 mph - N/A   Overcast
1:51 AM 23.0 °F 18.4 °F 16.0 °F 74% 30.47 in 10.0 mi SSW 3.5 mph - N/A   Overcast
2:51 AM 23.0 °F 18.4 °F 16.0 °F 74% 30.50 in 10.0 mi SSW 3.5 mph - N/A   Overcast
3:51 AM 23.0 °F 17.0 °F 16.0 °F 74% 30.49 in 10.0 mi SSW 4.6 mph - N/A   Overcast
4:51 AM 23.0 °F 18.4 °F 16.0 °F 74% 30.48 in 10.0 mi South 3.5 mph - N/A   Overcast
5:46 AM 23.0 °F 17.0 °F 15.8 °F 74% 30.47 in 10.0 mi South 4.6 mph - N/A   Overcast
5:51 AM 23.0 °F 17.0 °F 16.0 °F 74% 30.51 in 10.0 mi South 4.6 mph - N/A   Overcast
6:22 AM 21.2 °F 14.9 °F 15.8 °F 80% 30.48 in 10.0 mi South 4.6 mph - N/A   Overcast
6:51 AM 21.0 °F 14.6 °F 15.1 °F 78% 30.51 in 10.0 mi South 4.6 mph - N/A   Overcast
7:51 AM 21.0 °F 16.2 °F 15.1 °F 78% 30.53 in 9.0 mi South 3.5 mph - N/A   Overcast
8:51 AM 21.9 °F - 16.0 °F 78% 30.54 in 8.0 mi Calm Calm - N/A   Overcast
9:51 AM 24.1 °F 19.7 °F 16.0 °F 71% 30.56 in 10.0 mi South 3.5 mph - N/A   Overcast
10:51 AM 26.1 °F 17.6 °F 15.1 °F 63% 30.55 in 10.0 mi South 8.1 mph - N/A   Scattered Clouds
11:51 AM 27.0 °F 19.5 °F 15.1 °F 61% 30.53 in 10.0 mi South 6.9 mph - N/A   Partly Cloudy
12:51 PM 28.0 °F 24.2 °F 15.1 °F 58% 30.50 in 10.0 mi Variable 3.5 mph - N/A   Clear
1:51 PM 28.9 °F 22.8 °F 15.1 °F 56% 30.49 in 10.0 mi South 5.8 mph - N/A   Clear
2:51 PM 28.9 °F 23.9 °F 14.0 °F 54% 30.48 in 10.0 mi SSE 4.6 mph - N/A   Clear
3:51 PM 30.0 °F 24.1 °F 15.1 °F 54% 30.45 in 10.0 mi SE 5.8 mph - N/A   Clear
4:51 PM 30.0 °F 26.5 °F 15.1 °F 54% 30.43 in 10.0 mi SE 3.5 mph - N/A   Clear
5:51 PM 30.0 °F 25.2 °F 15.1 °F 54% 30.41 in 10.0 mi ESE 4.6 mph - N/A   Clear
6:51 PM 30.0 °F 26.5 °F 14.0 °F 51% 30.41 in 10.0 mi SSE 3.5 mph - N/A   Clear
7:51 PM 30.0 °F 22.4 °F 14.0 °F 51% 30.38 in 10.0 mi SSE 8.1 mph - N/A   Mostly Cloudy
8:51 PM 30.0 °F 23.2 °F 15.1 °F 54% 30.39 in 10.0 mi SSW 6.9 mph - N/A   Mostly Cloudy
9:51 PM 30.0 °F 26.5 °F 15.1 °F 54% 30.36 in 10.0 mi SSE 3.5 mph - N/A   Overcast
10:51 PM 30.9 °F 25.2 °F 16.0 °F 54% 30.33 in 10.0 mi South 5.8 mph - N/A   Overcast
11:51 PM 32.0 °F 21.2 °F 17.1 °F 54% 30.32 in 7.0 mi South 16.1 mph 19.6 mph 0.00 in Snow Light Snow